H1 CPF 2 NER 2025 11 15 9 319 01 glonass129 H2 1106402 9129 37868 2025 11 15 0 0 0 2025 11 18 23 45 0 900 1 1 0 0 0 1 H9 10 0 60994 0.00000 0 -22109152.479 -12276317.587 -3050821.789 10 0 60994 900.00000 0 -21649666.069 -11886932.524 -6215077.499 10 0 60994 1800.00000 0 -20802771.075 -11402236.075 -9258024.890 10 0 60994 2700.00000 0 -19572524.110 -10880200.647 -12120214.442 10 0 60994 3600.00000 0 -17976447.423 -10377978.934 -14745713.669 10 0 60994 4500.00000 0 -16044980.361 -9949295.791 -17083220.353 10 0 60994 5400.00000 0 -13820395.459 -9641998.632 -19087082.627 10 0 60994 6300.00000 0 -11355224.456 -9495872.450 -20718204.345 10 0 60994 7200.00000 0 -8710260.816 -9540813.882 -21944816.797 10 0 60994 8100.00000 0 -5952223.439 -9795442.998 -22743101.097 10 0 60994 9000.00000 0 -3151180.637 -10266212.176 -23097649.008 10 0 60994 9900.00000 0 -377843.386 -10947049.772 -23001753.633 10 0 60994 10800.00000 0 2299158.048 -11819552.955 -22457525.198 10 0 60994 11700.00000 0 4815899.917 -12853720.453 -21475830.902 10 0 60994 12600.00000 0 7115583.712 -14009192.800 -20076061.471 10 0 60994 13500.00000 0 9150647.766 -15236946.104 -18285730.584 10 0 60994 14400.00000 0 10884485.277 -16481366.392 -16139916.593 10 0 60994 15300.00000 0 12292699.300 -17682615.714 -13680558.985 10 0 60994 16200.00000 0 13363845.243 -18779189.333 -10955624.723 10 0 60994 17100.00000 0 14099633.088 -19710555.818 -8018161.906 10 0 60994 18000.00000 0 14514584.326 -20419768.857 -4925260.125 10 0 60994 18900.00000 0 14635161.329 -20855941.434 -1736938.395 10 0 60994 19800.00000 0 14498408.677 -20976479.264 1485017.455 10 0 60994 20700.00000 0 14150165.897 -20748980.924 4678245.423 10 0 60994 21600.00000 0 13642928.415 -20152726.351 7781003.380 10 0 60994 22500.00000 0 13033447.526 -19179692.730 10733348.259 10 0 60994 23400.00000 0 12380170.324 -17835056.417 13478276.743 10 0 60994 24300.00000 0 11740626.589 -16137160.720 15962806.960 10 0 60994 25200.00000 0 11168871.201 -14116951.096 18138982.048 10 0 60994 26100.00000 0 10713087.937 -11816900.904 19964778.049 10 0 60994 27000.00000 0 10413453.616 -9289471.278 21404900.387 10 0 60994 27900.00000 0 10300350.739 -6595167.326 22431455.211 10 0 60994 28800.00000 0 10393002.551 -3800269.026 23024483.829 10 0 60994 29700.00000 0 10698587.373 -974328.218 23172350.687 10 0 60994 30600.00000 0 11211869.712 1812467.447 22871977.548 10 0 60994 31500.00000 0 11915364.754 4491957.031 22128918.833 10 0 60994 32400.00000 0 12780031.259 7000587.368 20957275.543 10 0 60994 33300.00000 0 13766466.200 9281807.399 19379447.699 10 0 60994 34200.00000 0 14826553.735 11288177.451 17425727.975 10 0 60994 35100.00000 0 15905501.928 12983106.110 15133741.981 10 0 60994 36000.00000 0 16944183.961 14342141.959 12547743.606 10 0 60994 36900.00000 0 17881687.031 15353765.267 9717776.853 10 0 60994 37800.00000 0 18657962.435 16019645.135 6698718.599 10 0 60994 38700.00000 0 19216465.014 16354349.847 3549219.558 10 0 60994 39600.00000 0 19506669.495 16384521.186 330563.538 10 0 60994 40500.00000 0 19486355.526 16147546.499 -2894532.693 10 0 60994 41400.00000 0 19123562.279 15689784.116 -6063154.684 10 0 60994 42300.00000 0 18398127.049 15064417.332 -9113435.129 10 0 60994 43200.00000 0 17302739.811 14329028.697 -11985782.046 10 0 60994 44100.00000 0 15843466.384 13542998.860 -14624064.182 10 0 60994 45000.00000 0 14039715.844 12764842.157 -16976728.246 10 0 60994 45900.00000 0 11923651.905 12049594.039 -18997824.112 10 0 60994 46800.00000 0 9539072.163 11446363.189 -20647916.299 10 0 60994 47700.00000 0 6939802.188 10996153.900 -21894862.658 10 0 60994 48600.00000 0 4187672.335 10730052.250 -22714444.402 10 0 60994 49500.00000 0 1350162.957 10667853.589 -23090835.065 10 0 60994 50400.00000 0 -1502182.291 10817189.395 -23016899.634 10 0 60994 51300.00000 0 -4298465.906 11173189.737 -22494318.905 10 0 60994 52200.00000 0 -6970154.850 11718694.385 -21533537.847 10 0 60994 53100.00000 0 -9453694.014 12425001.938 -20153540.459 10 0 60994 54000.00000 0 -11692906.205 13253123.429 -18381457.127 10 0 60994 54900.00000 0 -13641079.668 14155485.530 -16252013.725 10 0 60994 55800.00000 0 -15262657.821 15078009.663 -13806834.808 10 0 60994 56700.00000 0 -16534463.145 15962477.819 -11093615.876 10 0 60994 57600.00000 0 -17446407.022 16749084.280 -8165182.044 10 0 60994 58500.00000 0 -18001659.073 17379065.120 -5078452.427 10 0 60994 59400.00000 0 -18216272.204 17797294.744 -1893331.035 10 0 60994 60300.00000 0 -18118282.169 17954740.604 1328453.958 10 0 60994 61200.00000 0 -17746322.088 17810673.784 4524540.084 10 0 60994 62100.00000 0 -17147812.109 17334543.700 7633126.931 10 0 60994 63000.00000 0 -16376801.526 16507439.512 10594156.704 10 0 60994 63900.00000 0 -15491554.433 15323078.152 13350457.281 10 0 60994 64800.00000 0 -14551979.973 13788278.480 15848827.220 10 0 60994 65700.00000 0 -13617014.046 11922902.106 18041043.516 10 0 60994 66600.00000 0 -12742060.827 9759263.137 19884774.460 10 0 60994 67500.00000 0 -11976599.614 7341030.457 21344381.815 10 0 60994 68400.00000 0 -11362055.509 4721666.557 22391598.468 10 0 60994 69300.00000 0 -10930021.646 1962465.511 23006069.702 10 0 60994 70200.00000 0 -10700906.382 -869731.219 23175748.440 10 0 60994 71100.00000 0 -10683061.742 -3705049.435 22897137.014 10 0 60994 72000.00000 0 -10872430.041 -6473226.021 22175370.300 10 0 60994 72900.00000 0 -11252724.632 -9106275.027 21024137.521 10 0 60994 73800.00000 0 -11796139.008 -11541067.685 19465442.532 10 0 60994 74700.00000 0 -12464556.756 -13721720.707 17529205.110 10 0 60994 75600.00000 0 -13211213.956 -15601694.335 15252708.587 10 0 60994 76500.00000 0 -13982746.448 -17145512.711 12679902.054 10 0 60994 77400.00000 0 -14721537.609 -18330033.992 9860568.447 10 0 60994 78300.00000 0 -15368268.892 -19145215.762 6849372.780 10 0 60994 79200.00000 0 -15864565.800 -19594342.098 3704807.661 10 0 60994 80100.00000 0 -16155626.878 -19693701.035 488056.049 10 0 60994 81000.00000 0 -16192723.073 -19471724.651 -2738206.530 10 0 60994 81900.00000 0 -15935459.407 -18967627.053 -5911046.148 10 0 60994 82800.00000 0 -15353700.463 -18229597.481 -8968515.457 10 0 60994 83700.00000 0 -14429075.150 -17312625.334 -11850883.328 10 0 60994 84600.00000 0 -13155994.079 -16276050.170 -14501822.953 10 0 60994 85500.00000 0 -11542133.902 -15180942.039 -16869532.984 10 0 60995 0.00000 0 -9608366.233 -14087425.078 -18907767.589 10 0 60995 900.00000 0 -7388131.610 -13052059.132 -20576754.649 10 0 60995 1800.00000 0 -4926286.811 -12125393.527 -21843980.206 10 0 60995 2700.00000 0 -2277470.517 -11349795.964 -22684826.839 10 0 60995 3600.00000 0 495941.088 -10757650.648 -23083050.516 10 0 60995 4500.00000 0 3326203.234 -10370001.331 -23031088.186 10 0 60995 5400.00000 0 6142795.720 -10195696.095 -22530190.737 10 0 60995 6300.00000 0 8875131.105 -10231068.700 -21590379.950 10 0 60995 7200.00000 0 11455264.272 -10460168.117 -20230231.717 10 0 60995 8100.00000 0 13820490.279 -10855524.371 -18476491.371 10 0 60995 9000.00000 0 15915722.704 -11379416.007 -16363530.221 10 0 60995 9900.00000 0 17695554.491 -11985583.392 -13932655.480 10 0 60995 10800.00000 0 19125917.206 -12621313.499 -11231288.476 10 0 60995 11700.00000 0 20185271.903 -13229806.576 -8312028.366 10 0 60995 12600.00000 0 20865284.688 -13752723.735 -5231620.582 10 0 60995 13500.00000 0 21170961.830 -14132807.479 -2049850.785 10 0 60995 14400.00000 0 21120241.819 -14316464.777 1171613.915 10 0 60995 15300.00000 0 20743064.217 -14256204.389 4370413.923 10 0 60995 16200.00000 0 20079956.677 -13912826.804 7484693.722 10 0 60995 17100.00000 0 19180200.927 -13257275.885 10454283.697 10 0 60995 18000.00000 0 18099655.543 -12272075.610 13221845.484 10 0 60995 18900.00000 0 16898326.794 -10952292.641 15733960.238 10 0 60995 19800.00000 0 15637788.671 -9305984.981 17942140.558 10 0 60995 20700.00000 0 14378558.852 -7354117.942 19803748.308 10 0 60995 21600.00000 0 13177538.718 -5129950.250 21282802.507 10 0 60995 22500.00000 0 12085622.556 -2677914.381 22350663.294 10 0 60995 23400.00000 0 11145574.165 -52035.634 22986580.053 10 0 60995 24300.00000 0 10390258.042 2686047.073 23178093.945 10 0 60995 25200.00000 0 9841298.179 5469379.583 22921287.269 10 0 60995 26100.00000 0 9508220.208 8228217.820 22220874.415 10 0 60995 27000.00000 0 9388113.267 10892678.300 21090131.572 10 0 60995 27900.00000 0 9465826.825 13395406.434 19550664.884 10 0 60995 28800.00000 0 9714695.949 15674153.692 17632019.432 10 0 60995 29700.00000 0 10097766.586 17674157.657 15371134.241 10 0 60995 30600.00000 0 10569471.471 19350226.105 12811651.384 10 0 60995 31500.00000 0 11077687.980 20668437.637 10003090.347 10 0 60995 32400.00000 0 11566092.578 21607386.569 6999901.751 10 0 60995 33300.00000 0 11976713.102 22158918.238 3860417.467 10 0 60995 34200.00000 0 12252570.781 22328322.006 645716.923 10 0 60995 35100.00000 0 12340299.138 22133972.055 -2581568.270 10 0 60995 36000.00000 0 12192626.943 21606429.699 -5758487.288 10 0 60995 36900.00000 0 11770617.492 20787044.211 -8823015.173 10 0 60995 37800.00000 0 11045566.410 19726111.117 -11715283.840 10 0 60995 38700.00000 0 10000474.539 18480666.317 -14378772.863 10 0 60995 39600.00000 0 8631030.688 17112010.493 -16761434.492 10 0 60995 40500.00000 0 6946060.227 15683070.145 -18816728.912 10 0 60995 41400.00000 0 4967418.692 14255708.664 -20504547.768 10 0 60995 42300.00000 0 2729333.709 12888102.973 -21792006.619 10 0 60995 43200.00000 0 277222.472 11632298.054 -22654090.119 10 0 60995 44100.00000 0 -2333965.455 10532043.639 -23074137.178 10 0 60995 45000.00000 0 -5041809.815 9621004.698 -23044156.962 10 0 60995 45900.00000 0 -7778798.611 8921420.724 -22564970.421 10 0 60995 46800.00000 0 -10474923.874 8443269.207 -21646175.768 10 0 60995 47700.00000 0 -13060385.000 8183966.680 -20305940.036 10 0 60995 48600.00000 0 -15468286.337 8128617.580 -18570622.375 10 0 60995 49500.00000 0 -17637216.581 8250797.797 -16474238.050 10 0 60995 50400.00000 0 -19513602.977 8513837.103 -14057775.179 10 0 60995 51300.00000 0 -21053743.447 8872543.823 -11368378.951 10 0 60995 52200.00000 0 -22225433.703 9275296.731 -8458420.466 10 0 60995 53100.00000 0 -23009123.770 9666414.196 -5384469.314 10 0 60995 54000.00000 0 -23398558.324 9988699.488 -2206190.601 10 0 60995 54900.00000 0 -23400876.897 10186054.391 1014811.843 10 0 60995 55800.00000 0 -23036172.479 10206051.033 4216183.543 10 0 60995 56700.00000 0 -22336529.412 10002354.189 7336016.160 10 0 60995 57600.00000 0 -21344582.677 9536893.052 10314030.574 10 0 60995 58500.00000 0 -20111660.107 8781692.279 13092724.519 10 0 60995 59400.00000 0 -18695585.650 7720286.490 15618464.084 10 0 60995 60300.00000 0 -17158235.222 6348659.656 17842499.736 10 0 60995 61200.00000 0 -15562946.281 4675670.368 19721889.061 10 0 60995 62100.00000 0 -13971887.734 2722944.798 21220310.277 10 0 60995 63000.00000 0 -12443498.043 524240.740 22308752.457 10 0 60995 63900.00000 0 -11030096.456 -1875692.628 22966070.454 10 0 60995 64800.00000 0 -9775765.084 -4422714.304 23179394.673 10 0 60995 65700.00000 0 -8714588.772 -7055286.863 22944388.002 10 0 60995 66600.00000 0 -7869325.262 -9706787.994 22265344.566 10 0 60995 67500.00000 0 -7250561.001 -12308045.399 21155127.324 10 0 60995 68400.00000 0 -6856388.308 -14789992.664 19634944.090 10 0 60995 69300.00000 0 -6672618.579 -17086338.007 17733964.221 10 0 60995 70200.00000 0 -6673524.134 -19136136.452 15488781.007 10 0 60995 71100.00000 0 -6823079.384 -20886158.944 12942727.710 10 0 60995 72000.00000 0 -7076650.891 -22292959.311 10145058.248 10 0 60995 72900.00000 0 -7383066.586 -23324551.653 7150006.477 10 0 60995 73800.00000 0 -7686977.693 -23961626.246 4015740.953 10 0 60995 74700.00000 0 -7931413.676 -24198250.914 803234.838 10 0 60995 75600.00000 0 -8060421.411 -24042026.298 -2424927.011 10 0 60995 76500.00000 0 -8021675.235 -23513686.593 -5605779.806 10 0 60995 77400.00000 0 -7768945.040 -22646161.182 -8677223.958 10 0 60995 78300.00000 0 -7264315.022 -21483136.008 -11579257.439 10 0 60995 79200.00000 0 -6480056.052 -20077175.378 -14255169.169 10 0 60995 80100.00000 0 -5400069.352 -18487484.235 -16652667.863 10 0 60995 81000.00000 0 -4020837.715 -16777406.640 -18724922.209 10 0 60995 81900.00000 0 -2351841.815 -15011767.745 -20431490.336 10 0 60995 82800.00000 0 -415422.498 -13254173.179 -21739119.065 10 0 60995 83700.00000 0 1753906.032 -11564381.360 -22622396.607 10 0 60995 84600.00000 0 4110663.437 -9995860.667 -23064245.777 10 0 60995 85500.00000 0 6600079.827 -8593634.968 -23056248.403 10 0 60996 0.00000 0 9160170.382 -7392508.122 -22598795.505 10 0 60996 900.00000 0 11724121.585 -6415740.620 -21701061.140 10 0 60996 1800.00000 0 14222884.837 -5674233.875 -20380802.580 10 0 60996 2700.00000 0 16587872.852 -5166252.019 -18663991.480 10 0 60996 3600.00000 0 18753642.504 -4877691.744 -16584285.371 10 0 60996 4500.00000 0 20660453.533 -4782885.118 -14182351.199 10 0 60996 5400.00000 0 22256596.842 -4845898.638 -11505055.566 10 0 60996 6300.00000 0 23500396.468 -5022271.010 -8604538.701 10 0 60996 7200.00000 0 24361803.464 -5261114.006 -5537191.219 10 0 60996 8100.00000 0 24823517.366 -5507486.061 -2362554.297 10 0 60996 9000.00000 0 24881590.878 -5704937.398 857835.016 10 0 60996 9900.00000 0 24545495.046 -5798118.933 4061630.880 10 0 60996 10800.00000 0 23837644.530 -5735345.196 7186875.522 10 0 60996 11700.00000 0 22792404.796 -5471004.020 10173183.480 10 0 60996 12600.00000 0 21454624.110 -4967712.572 12962891.425 10 0 60996 13500.00000 0 19877752.347 -4198130.236 15502152.831 10 0 60996 14400.00000 0 18121625.107 -3146353.180 17741958.081 10 0 60996 15300.00000 0 16250004.822 -1808832.741 19639062.116 10 0 60996 16200.00000 0 14327979.960 -194779.238 21156803.568 10 0 60996 17100.00000 0 12419328.829 1673966.400 22265801.271 10 0 60996 18000.00000 0 10583955.664 3763589.209 22944515.982 10 0 60996 18900.00000 0 8875503.654 6029459.818 23179667.386 10 0 60996 19800.00000 0 7339242.372 8417751.609 22966498.605 10 0 60996 20700.00000 0 6010316.255 10867451.263 22308882.734 10 0 60996 21600.00000 0 4912426.272 13312682.382 21219268.344 10 0 60996 22500.00000 0 4056999.689 15685248.675 19718463.382 10 0 60996 23400.00000 0 3442883.155 17917293.516 17835259.594 10 0 60996 24300.00000 0 3056573.070 19943967.113 15605902.343 10 0 60996 25200.00000 0 2872975.048 21705991.180 13073413.628 10 0 60996 26100.00000 0 2856662.190 23152014.168 10286779.135 10 0 60996 27000.00000 0 2963580.669 24240657.804 7300013.121 10 0 60996 27900.00000 0 3143131.776 24942167.686 4171117.873 10 0 60996 28800.00000 0 3340542.901 25239596.589 960957.287 10 0 60996 29700.00000 0 3499426.837 25129468.416 -2267933.533 10 0 60996 30600.00000 0 3564419.873 24621892.605 -5452578.721 10 0 60996 31500.00000 0 3483784.983 23740122.216 -8530806.769 10 0 60996 32400.00000 0 3211867.259 22519572.982 -11442484.156 10 0 60996 33300.00000 0 2711294.615 21006344.045 -14130711.297 10 0 60996 34200.00000 0 1954827.507 19255302.913 -16542955.183 10 0 60996 35100.00000 0 926776.544 17327816.188 -18632094.488 10 0 60996 36000.00000 0 -376074.451 15289223.068 -20357354.997 10 0 60996 36900.00000 0 -1944080.759 13206159.693 -21685115.675 10 0 60996 37800.00000 0 -3754902.024 11143848.607 -22589568.895 10 0 60996 38700.00000 0 -5774213.992 9163468.734 -23053221.698 10 0 60996 39600.00000 0 -7956936.668 7319717.311 -23067228.595 10 0 60996 40500.00000 0 -10248926.676 5658666.388 -22631550.231 10 0 60996 41400.00000 0 -12589061.926 4216003.276 -21754935.973 10 0 60996 42300.00000 0 -14911630.158 3015727.423 -20454732.189 10 0 60996 43200.00000 0 -17148920.410 2069356.256 -18756521.554 10 0 60996 44100.00000 0 -19233908.326 1375670.578 -16693602.030 10 0 60996 45000.00000 0 -21102922.681 921007.069 -14306317.276 10 0 60996 45900.00000 0 -22698181.918 680082.283 -11641252.996 10 0 60996 46800.00000 0 -23970095.441 617310.248 -8750316.123 10 0 60996 47700.00000 0 -24879234.760 688555.313 -5689715.832 10 0 60996 48600.00000 0 -25397893.877 843244.014 -2518866.901 10 0 60996 49500.00000 0 -25511175.791 1026745.254 700762.854 10 0 60996 50400.00000 0 -25217561.904 1182917.450 3906838.660 10 0 60996 51300.00000 0 -24528942.759 1256715.032 7037355.717 10 0 60996 52200.00000 0 -23470110.713 1196744.798 10031824.594 10 0 60996 53100.00000 0 -22077737.241 957665.326 12832423.223 10 0 60996 54000.00000 0 -20398878.395 502329.601 15385094.697 10 0 60996 54900.00000 0 -18489070.922 -196418.071 17640571.394 10 0 60996 55800.00000 0 -16410097.809 -1154365.338 19555307.467 10 0 60996 56700.00000 0 -14227515.061 -2375032.537 21092303.555 10 0 60996 57600.00000 0 -12008040.805 -3849288.684 22221809.498 10 0 60996 58500.00000 0 -9816913.137 -5555499.702 22921892.835 10 0 60996 59400.00000 0 -7715324.258 -7460204.393 23178863.033 10 0 60996 60300.00000 0 -5758035.337 -9519292.360 22987543.563 10 0 60996 61200.00000 0 -3991269.454 -11679637.725 22351386.243 10 0 60996 62100.00000 0 -2450968.971 -13881123.785 21282424.654 10 0 60996 63000.00000 0 -1161489.227 -16058977.525 19801065.947 10 0 60996 63900.00000 0 -134783.080 -18146319.593 17935723.000 10 0 60996 64800.00000 0 629888.970 -20076825.748 15722291.687 10 0 60996 65700.00000 0 1145709.829 -21787390.220 13203480.888 10 0 60996 66600.00000 0 1437527.025 -23220680.235 10428005.941 10 0 60996 67500.00000 0 1540575.408 -24327474.399 7449659.169 10 0 60996 68400.00000 0 1498753.939 -25068685.623 4326274.092 10 0 60996 69300.00000 0 1362528.597 -25416981.693 1118602.712 10 0 60996 70200.00000 0 1186550.025 -25357932.899 -2110872.303 10 0 60996 71100.00000 0 1027087.489 -24890635.846 -5299166.744 10 0 60996 72000.00000 0 939389.374 -24027784.800 -8384039.921 10 0 60996 72900.00000 0 975084.291 -22795185.576 -11305229.543 10 0 60996 73800.00000 0 1179735.606 -21230731.212 -14005650.184 10 0 60996 74700.00000 0 1590655.945 -19382882.077 -16432529.655 10 0 60996 75600.00000 0 2235077.103 -17308714.707 -18538458.977 10 0 60996 76500.00000 0 3128755.369 -15071622.416 -20282333.667 10 0 60996 77400.00000 0 4275073.307 -12738765.805 -21630166.563 10 0 60996 78300.00000 0 5664677.335 -10378381.879 -22555755.506 10 0 60996 79200.00000 0 7275667.147 -8057066.240 -23041192.618 10 0 60996 80100.00000 0 9074329.043 -5837143.535 -23077205.482 10 0 60996 81000.00000 0 11016381.833 -3774236.950 -22663324.382 10 0 60996 81900.00000 0 13048682.065 -1915138.396 -21807873.449 10 0 60996 82800.00000 0 15111315.836 -296067.633 -20527787.331 10 0 60996 83700.00000 0 17139988.305 1058608.544 -18848258.524 10 0 60996 84600.00000 0 19068609.761 2137145.917 -16802223.877 10 0 60996 85500.00000 0 20831969.206 2940652.029 -14429701.873 10 0 60997 0.00000 0 22368383.140 3482768.677 -11776995.318 10 0 60997 900.00000 0 23622209.722 3788824.761 -8895774.789 10 0 60997 1800.00000 0 24546121.856 3894497.732 -5842065.349 10 0 60997 2700.00000 0 25103048.110 3844043.782 -2675152.251 10 0 60997 3600.00000 0 25267699.838 3688172.794 543569.197 10 0 60997 4500.00000 0 25027623.363 3481659.470 3751778.588 10 0 60997 5400.00000 0 24383735.066 3280791.993 6887427.318 10 0 60997 6300.00000 0 23350318.815 3140765.810 9889925.029 10 0 60997 7200.00000 0 21954487.287 3113131.665 12701293.688 10 0 60997 8100.00000 0 20235130.635 3243404.339 15267268.468 10 0 60997 9000.00000 0 18241396.571 3568931.376 17538325.864 10 0 60997 9900.00000 0 16030764.806 4117110.173 19470621.016 10 0 60997 10800.00000 0 13666794.821 4904027.310 21026817.992 10 0 60997 11700.00000 0 11216638.873 5933576.816 22176798.718 10 0 60997 12600.00000 0 8748421.391 7197094.563 22898238.237 10 0 60997 13500.00000 0 6328591.122 8673525.180 23177036.149 10 0 60997 14400.00000 0 4019353.506 10330116.386 23007596.219 10 0 60997 15300.00000 0 1876287.710 12123614.270 22392948.510 10 0 60997 16200.00000 0 -53754.460 14001912.596 21344710.691 10 0 60997 17100.00000 0 -1734381.559 15906090.531 19882887.749 10 0 60997 18000.00000 0 -3140955.670 17772756.721 18035511.909 10 0 60997 18900.00000 0 -4261391.604 19536604.486 15838127.395 10 0 60997 19800.00000 0 -5096427.941 21133073.236 13333127.501 10 0 60997 20700.00000 0 -5659357.283 22501005.733 10568954.496 10 0 60997 21600.00000 0 -5975225.709 23585189.912 7599175.867 10 0 60997 22500.00000 0 -6079533.794 24338677.659 4481453.344 10 0 60997 23400.00000 0 -6016492.993 24724781.334 1276423.960 10 0 60997 24300.00000 0 -5836910.665 24718661.645 -1953485.140 10 0 60997 25200.00000 0 -5595793.523 24308437.284 -5145284.412 10 0 60997 26100.00000 0 -5349772.049 23495766.806 -8236666.845 10 0 60997 27000.00000 0 -5154456.846 22295875.803 -11167244.020 10 0 60997 27900.00000 0 -5061841.284 20737026.303 -13879747.032 10 0 60997 28800.00000 0 -5117863.269 18859449.597 -16321166.550 10 0 60997 29700.00000 0 -5360232.182 16713787.050 -18443807.633 10 0 60997 30600.00000 0 -5816615.607 14359104.847 -20206236.891 10 0 60997 31500.00000 0 -6503264.736 11860567.102 -21574102.056 10 0 60997 32400.00000 0 -7424138.127 9286866.370 -22520807.144 10 0 60997 33300.00000 0 -8570561.717 6707520.763 -23028029.734 10 0 60997 34200.00000 0 -9921439.649 4190152.236 -23086070.523 10 0 60997 35100.00000 0 -11444006.581 1797860.842 -22694029.098 10 0 60997 36000.00000 0 -13095088.944 -413195.008 -21859803.626 10 0 60997 36900.00000 0 -14822820.849 -2395911.550 -20599915.886 10 0 60997 37800.00000 0 -16568741.177 -4113958.972 -18939166.649 10 0 60997 38700.00000 0 -18270182.532 -5543037.229 -16910129.730 10 0 60997 39600.00000 0 -19862850.699 -6671618.554 -14552496.201 10 0 60997 40500.00000 0 -21283485.730 -7501148.878 -11912283.020 10 0 60997 41400.00000 0 -22472492.863 -8045703.189 -9040922.756 10 0 60997 42300.00000 0 -23376433.268 -8331112.801 -5994253.229 10 0 60997 43200.00000 0 -23950271.043 -8393604.424 -2831427.461 10 0 60997 44100.00000 0 -24159283.555 -8278011.008 386234.445 10 0 60997 45000.00000 0 -23980556.697 -8035631.718 3596429.125 10 0 60997 45900.00000 0 -23404004.124 -7721832.451 6737066.800 10 0 60997 46800.00000 0 -22432869.540 -7393488.437 9747458.756 10 0 60997 47700.00000 0 -21083692.419 -7106376.374 12569473.469 10 0 60997 48600.00000 0 -19385739.569 -6912625.033 15148640.514 10 0 60997 49500.00000 0 -17379926.627 -6858330.322 17435182.619 10 0 60997 50400.00000 0 -15117274.128 -6981433.651 19384957.741 10 0 60997 51300.00000 0 -12656961.384 -7309951.404 20960294.871 10 0 60997 52200.00000 0 -10064057.359 -7860628.871 22130709.126 10 0 60997 53100.00000 0 -7407020.635 -8638074.714 22873483.760 10 0 60997 54000.00000 0 -4755069.619 -9634412.604 23174108.784 10 0 60997 54900.00000 0 -2175529.441 -10829465.821 23026568.162 10 0 60997 55800.00000 0 268736.916 -12191469.018 22433469.730 10 0 60997 56700.00000 0 2521708.797 -13678279.965 21406014.450 10 0 60997 57600.00000 0 4536302.125 -15239043.557 19963804.044 10 0 60997 58500.00000 0 6276091.497 -16816241.509 18134488.698 10 0 60997 59400.00000 0 7716588.587 -18348044.763 15953259.315 10 0 60997 60300.00000 0 8846023.037 -19770872.378 13462191.644 10 0 60997 61200.00000 0 9665592.119 -21022051.070 10709452.656 10 0 60997 62100.00000 0 10189167.402 -22042464.316 7748382.525 10 0 60997 63000.00000 0 10442469.349 -22779079.236 4636468.496 10 0 60997 63900.00000 0 10461743.426 -23187243.512 1434229.791 10 0 60997 64800.00000 0 10291992.834 -23232653.393 -1795964.885 10 0 60997 65700.00000 0 9984842.449 -22892907.135 -4991123.575 10 0 60997 66600.00000 0 9596124.975 -22158575.401 -8088875.820 10 0 60997 67500.00000 0 9183292.896 -21033740.649 -11028709.836 10 0 60997 68400.00000 0 8802767.860 -19535980.317 -13753175.849 10 0 60997 69300.00000 0 8507342.240 -17695792.719 -16209029.799 10 0 60997 70200.00000 0 8343745.583 -15555488.768 -18348292.945 10 0 60997 71100.00000 0 8350481.547 -13167595.930 -20129204.828 10 0 60997 72000.00000 0 8556029.066 -10592841.898 -21517049.549 10 0 60997 72900.00000 0 8977485.531 -7897803.639 -22484838.342 10 0 60997 73800.00000 0 9619710.293 -5152321.592 -23013834.844 10 0 60997 74700.00000 0 10475004.980 -2426788.623 -23093913.004 10 0 60997 75600.00000 0 11523343.734 210571.824 -22723741.417 10 0 60997 76500.00000 0 12733142.718 2696324.068 -21910791.594 10 0 60997 77400.00000 0 14062535.150 4974225.703 -20671171.392 10 0 60997 78300.00000 0 15461096.606 6997320.661 -19029288.473 10 0 60997 79200.00000 0 16871946.444 8729634.059 -17017351.932 10 0 60997 80100.00000 0 18234135.545 10147400.307 -14674723.452 10 0 60997 81000.00000 0 19485218.884 11239776.116 -12047132.120 10 0 60997 81900.00000 0 20563904.203 12009011.888 -9185769.482 10 0 60997 82800.00000 0 21412665.345 12470077.808 -6146283.558 10 0 60997 83700.00000 0 21980210.885 12649763.752 -2987692.177 10 0 60997 84600.00000 0 22223705.304 12585293.861 228762.838 10 0 60997 85500.00000 0 22110650.724 12322516.519 3440798.243 99